AKST,Max TemperatureF,Mean TemperatureF,Min TemperatureF,Max Dew PointF,MeanDew PointF,Min DewpointF,Max Humidity, Mean Humidity, Min Humidity, Max Sea Level PressureIn, Mean Sea Level PressureIn, Min Sea Level PressureIn, Max VisibilityMiles, Mean VisibilityMiles, Min VisibilityMiles, Max Wind SpeedMPH, Mean Wind SpeedMPH, Max Gust SpeedMPH,PrecipitationIn, CloudCover, Events, WindDirDegrees
2012-11-1,41,31,20,37,28,20,0,0,0,29.56,29.49,29.28,10,9,2,45,21,59,0.11,7,Rain-Snow,5
2012-11-2,45,42,38,39,36,33,0,0,0,29.24,29.03,28.93,10,7,2,48,23,63,1.08,7,Rain-Snow,19
2012-11-3,44,41,38,38,36,33,0,0,0,29.30,29.15,29.03,10,8,2,28,14,41,0.22,8,Rain,347
2012-11-4,41,38,35,34,31,25,0,0,0,29.39,29.31,29.28,10,10,7,26,15,33,T,7,Rain-Snow,297
2012-11-5,36,33,29,30,24,18,0,0,0,29.68,29.55,29.41,10,9,5,16,10,23,T,7,Snow,306
2012-11-6,35,32,29,24,21,16,0,0,0,30.13,29.88,29.69,10,9,6,26,18,37,T,5,Snow,297
2012-11-7,38,32,26,22,20,18,0,0,0,30.31,30.25,30.14,10,10,10,21,9,26,0.00,3,,299
2012-11-8,42,37,31,41,35,22,0,0,0,30.29,30.13,29.98,10,3,0,17,2,20,0.63,8,Fog-Rain-Snow,136
2012-11-9,44,42,39,43,42,38,0,0,0,29.97,29.68,29.47,7,2,0,13,9,17,0.60,8,Rain,71
2012-11-10,44,42,40,43,40,37,0,0,0,29.49,29.46,29.44,10,5,2,21,12,28,0.48,8,Rain,340
2012-11-11,46,40,33,37,34,30,0,0,0,29.82,29.63,29.49,10,10,9,20,12,28,T,4,Rain,297
2012-11-12,46,38,30,34,30,28,0,0,0,30.03,29.96,29.84,10,10,10,14,6,17,0.00,3,,273
2012-11-13,43,37,30,41,34,28,0,0,0,30.03,29.76,29.53,10,10,6,13,5,18,0.01,7,Rain,182
2012-11-14,41,36,31,36,33,28,0,0,0,29.53,29.35,29.24,10,10,10,13,4,16,0.02,7,Rain,279
2012-11-15,41,36,31,34,32,30,0,0,0,29.47,29.41,29.32,10,7,2,24,9,30,0.06,7,Rain-Snow,297
2012-11-16,38,34,30,31,26,17,0,0,0,29.57,29.52,29.42,10,9,2,31,15,40,0.01,2,Snow,296
2012-11-17,30,28,25,20,17,14,0,0,0,29.41,29.17,29.03,10,10,9,22,9,28,T,2,Snow,303
2012-11-18,30,27,23,28,22,14,0,0,0,29.12,29.06,29.02,10,6,0,28,14,35,0.10,6,Fog-Snow,301
2012-11-19,30,29,27,28,23,15,0,0,0,29.42,29.24,29.12,10,6,0,30,22,43,0.14,6,Fog-Snow,297
2012-11-20,30,28,25,27,22,18,0,0,0,29.53,29.50,29.44,10,6,1,30,19,39,T,6,Snow,297
2012-11-21,32,31,29,27,26,24,0,0,0,29.62,29.56,29.52,10,6,2,28,22,39,0.03,7,Snow,299
2012-11-22,38,34,30,33,27,16,0,0,0,29.61,29.52,29.34,10,5,1,33,19,44,0.29,7,Rain-Snow,307
2012-11-23,35,33,30,31,26,17,0,0,0,29.65,29.52,29.37,10,8,1,33,18,38,0.02,7,Rain-Snow,303
2012-11-24,35,30,25,32,30,20,0,0,0,29.92,29.75,29.66,10,7,1,14,5,17,0.18,7,Rain-Snow,287
2012-11-25,38,31,24,34,29,19,0,0,0,30.07,29.98,29.93,10,7,2,16,8,23,0.27,8,Rain-Snow,312
2012-11-26,40,38,36,38,34,32,0,0,0,30.18,30.12,30.05,10,8,2,17,10,26,0.18,8,Rain-Snow,353
2012-11-27,42,39,35,39,35,23,0,0,0,30.03,29.90,29.82,10,7,2,33,14,41,0.09,8,Rain,4
2012-11-28,38,36,33,24,21,17,0,0,0,29.82,29.73,29.57,10,10,10,33,17,39,0.00,5,,307
2012-11-29,34,32,29,18,15,11,0,0,0,29.55,29.46,29.41,10,10,10,26,16,38,0.00,3,,305
2012-11-30,34,32,29,17,11,3,0,0,0,29.58,29.55,29.47,10,10,10,24,14,36,0.00,1,,308